Aérodrome :
LOGIN :

S'inscrire | Disclaimer

   EN    FR    IT 

 










Légende :    VFR   VFR Marginal   IFR   IFR Intensif   IFR Très Intensif
Visi : 
Plafond : 
>= 8 km
>= 3000ft
5 à 8 km
1000 à 3000 ft
1500m à 5 km
500 à 1000 ft
800 à 1500m
200 à 500 ft
< 800m
< 200 ft
Symboles :   Orages  Brouillard  Fortes neiges  Fortes précipitations  Vent > 20 kt
SIGMETs :   Divers  Orages  Givrage  Turbulence  Onde Orograph.  Cendres Volcan.







- Altitude de l'aérodrome : 1234 ft
- Code IATA : LUX


ELLX - Luxembourg Findel

DERNIER METAR :
  • 240820Z VRB02KT 9999 FEW022 17/10 Q1023 NOSIG

METARs EXPIRÉS :
  • 240750Z 29005KT 240V020 9999 FEW022 16/09 Q1023 NOSIG
  • 240720Z 29005KT 240V010 9999 FEW018 16/10 Q1023 NOSIG
  • 240650Z 28006KT 240V320 CAVOK 16/10 Q1023 NOSIG
  • 240620Z 26004KT 230V290 CAVOK 14/10 Q1023 NOSIG
  • 240550Z 00000KT CAVOK 13/10 Q1023 NOSIG

TAF TAF ELLX
Valide du 24 à 06h jusqu'au 25 à 12h UTC


240500Z 2406/2512 33004KT CAVOK
TEMPO 2406/2512 SCT030 BKN060
TEMPO 2408/2418 36010KT
ATIS : +352 4798 27300
Météo : +352 4798 27010 / 27050
Pas de NOTAMs connus pour ce terrain.



MET'MAP, la Météo Aéronautique d'un coup d'oeil ! - Copyright ORBIFLY Décembre 2007 - Disclaimer

ORBIFLY MET'MAP TEAM :

Programmation & Développement : Alexandra Zaïnal
Conception & Développement : Baudouin d'Aumeries
Co-Programmation & Développement : Marc-Olivier Méhu
Soutien technique & logistique : Manuel Goepfert

Contact : metmap@orbifly.com




SOURCES & CREDITS :

   NOAA